Date String (YYYY-MM-DD hh:mm:ss) UTC,Instrument flags,absolute air pressure of the measurement (hPa),sample flow rate (lpm),inlet stack bypass flow (lpm),air temperature of the measurement (°C),ambient temperature measured by the external sensor (°C),aerosol sample conditioner tube jacket temperature (°C),OPC LED temperature (°C),internal box temperature (°C),relative humidity of the measurement (%),span deviation,mass concentration of particles derived from Lorenz-Mie calculation of OPC scattering (μg/m³),mass concentration of particles derived from Lorenz-Mie calculation of OPC scattering (μg/m³),mass concentration of particles derived from Lorenz-Mie calculation of OPC scattering (μg/m³)
DateTimeUTC,F1_M11,P_M11,Q1_M11,Q2_M11,T1_M11,T2_M11,T3_M11,T4_M11,T5_M11,U1_M11,ZSPAN_M11,X0_M11,X2_M11,X1_M11
2024-01-03 12:00:00,SystemResetWarning,0829.4,4.99,000.00,019.2,018.2,000.0,027.6,020.5,13.3,0000.0,0010.73,0004.59,0004.18
2024-01-03 12:01:00,SystemResetWarning,0829.4,4.99,000.00,019.2,018.3,000.0,027.6,020.5,13.3,0000.0,0010.58,0004.55,0004.15
2024-01-03 12:02:00,SystemResetWarning,0829.4,4.99,000.00,019.2,018.3,000.0,027.6,020.5,13.4,0000.0,0010.32,0004.50,0004.09
2024-01-03 12:03:00,SystemResetWarning,0829.3,5.00,000.00,019.2,018.3,000.0,027.6,020.6,13.3,0000.0,0010.39,0004.38,0004.02
2024-01-03 12:04:00,SystemResetWarning,0829.3,5.00,000.00,019.2,018.3,000.0,027.6,020.6,13.2,0000.0,0011.03,0004.33,0004.00
2024-01-03 12:05:00,SystemResetWarning,0829.3,5.01,000.00,019.2,018.3,000.0,027.6,020.6,13.2,0000.0,0010.96,0004.34,0004.00
2024-01-03 12:06:00,SystemResetWarning,0829.3,5.00,000.00,019.2,018.4,000.0,027.6,020.6,13.3,0000.0,0012.11,0004.34,0003.99
2024-01-03 12:07:00,SystemResetWarning,0829.4,5.01,000.00,019.2,018.4,000.0,027.6,020.6,13.4,0000.0,0011.96,0004.34,0004.00
2024-01-03 12:08:00,SystemResetWarning,0829.4,5.01,000.00,019.2,018.4,000.0,027.6,020.5,13.5,0000.0,0011.76,0004.36,0003.99
2024-01-03 12:09:00,SystemResetWarning,0829.3,5.00,000.00,019.2,018.4,000.0,027.6,020.5,13.4,0000.0,0011.77,0004.37,0004.00
2024-01-03 12:10:00,SystemResetWarning,0829.3,5.00,000.00,019.2,018.4,000.0,027.6,020.6,13.3,0000.0,0011.16,0004.43,0004.07
2024-01-03 12:11:00,SystemResetWarning,0829.4,4.99,000.00,019.2,018.4,000.0,027.6,020.6,13.3,0000.0,0011.03,0004.47,0004.12
2024-01-03 12:12:00,SystemResetWarning,0829.3,5.00,000.00,019.2,018.4,000.0,027.6,020.5,13.2,0000.0,0011.51,0004.58,0004.22
2024-01-03 12:13:00,SystemResetWarning,0829.4,4.99,000.00,019.2,018.4,000.0,027.6,020.5,13.2,0000.0,0011.63,0004.67,0004.31
2024-01-03 12:14:00,SystemResetWarning,0829.4,5.00,000.00,019.2,018.4,000.0,027.6,020.5,13.0,0000.0,0011.23,0004.79,0004.42
2024-01-03 12:15:00,SystemResetWarning,0829.4,5.01,000.00,019.2,018.3,000.0,027.6,020.5,13.0,0000.0,0010.87,0004.91,0004.52
2024-01-03 12:16:00,SystemResetWarning,0829.4,5.01,000.00,019.2,018.3,000.0,027.6,020.5,13.0,0000.0,0011.02,0005.00,0004.60
2024-01-03 12:17:00,SystemResetWarning,0829.3,5.01,000.00,019.2,018.3,000.0,027.6,020.5,13.1,0000.0,0010.09,0005.07,0004.67
2024-01-03 12:18:00,SystemResetWarning,0829.4,5.00,000.00,019.2,018.3,000.0,027.6,020.5,13.2,0000.0,0009.98,0005.12,0004.73
2024-01-03 12:19:00,SystemResetWarning,0829.3,4.99,000.00,019.2,018.4,000.0,027.6,020.6,13.3,0000.0,0010.09,0005.17,0004.81
2024-01-03 12:20:00,SystemResetWarning,0829.4,4.99,000.00,019.2,018.4,000.0,027.6,020.6,13.3,0000.0,0010.11,0005.24,0004.88
2024-01-03 12:21:00,SystemResetWarning,0829.3,4.99,000.00,019.2,018.4,000.0,027.6,020.5,13.4,0000.0,0010.11,0005.27,0004.90
2024-01-03 12:22:00,SystemResetWarning,0829.3,5.01,000.00,019.2,018.4,000.0,027.6,020.5,13.4,0000.0,0009.67,0005.32,0004.92
2024-01-03 12:23:00,SystemResetWarning,0829.3,5.01,000.00,019.2,018.4,000.0,027.6,020.5,13.4,0000.0,0009.43,0005.34,0004.90
2024-01-03 12:24:00,SystemResetWarning,0829.3,5.01,000.00,019.2,018.5,000.0,027.6,020.6,13.4,0003.8,0009.71,0005.37,0004.91
2024-01-03 12:25:00,SystemResetWarning,0829.3,4.99,000.00,019.2,018.5,000.0,027.6,020.6,13.5,0005.3,0010.15,0005.36,0004.88
2024-01-03 12:26:00,SystemResetWarning,0829.3,5.00,000.00,019.2,018.5,000.0,027.6,020.6,13.6,0002.3,0009.69,0005.33,0004.84
2024-01-03 12:27:00,SystemResetWarning,0829.4,5.00,000.00,019.2,018.5,000.0,027.6,020.6,13.6,0000.0,0009.65,0005.30,0004.82
2024-01-03 12:28:00,SystemResetWarning,0829.4,5.00,000.00,019.3,018.5,000.0,027.6,020.6,13.5,0000.0,0009.64,0005.28,0004.81
2024-01-03 12:29:00,SystemResetWarning,0829.5,5.00,000.00,019.3,018.5,000.0,027.6,020.6,13.5,0000.0,0009.54,0005.26,0004.77
2024-01-03 12:30:00,SystemResetWarning,0829.5,5.00,000.00,019.3,018.5,000.0,027.6,020.5,13.5,0000.0,0009.42,0005.25,0004.74
2024-01-03 12:31:00,SystemResetWarning,0829.5,5.01,000.00,019.3,018.4,000.0,027.6,020.5,13.3,0000.0,0009.38,0005.20,0004.70
2024-01-03 12:32:00,SystemResetWarning,0829.5,5.01,000.00,019.2,018.4,000.0,027.6,020.5,13.2,0000.0,0009.13,0005.13,0004.66
2024-01-03 12:33:00,SystemResetWarning,0829.4,5.00,000.00,019.2,018.3,000.0,027.6,020.5,13.3,0000.0,0008.90,0005.07,0004.65
2024-01-03 12:34:00,SystemResetWarning,0829.5,5.00,000.00,019.2,018.3,000.0,027.6,020.5,13.4,0000.0,0008.89,0005.09,0004.65
2024-01-03 12:35:00,SystemResetWarning,0829.4,5.00,000.00,019.2,018.3,000.0,027.5,020.5,13.4,0000.0,0008.70,0005.05,0004.66
2024-01-03 12:36:00,SystemResetWarning,0829.4,5.00,000.00,019.2,018.3,000.0,027.5,020.5,13.5,0000.0,0008.31,0005.06,0004.68
2024-01-03 12:37:00,SystemResetWarning,0829.4,5.00,000.00,019.2,018.2,000.0,027.6,020.5,13.5,0000.0,0008.60,0005.09,0004.72
2024-01-03 12:38:00,SystemResetWarning,0829.3,5.00,000.00,019.2,018.2,000.0,027.5,020.4,13.4,0000.0,0009.04,0005.15,0004.78
2024-01-03 12:39:00,SystemResetWarning,0829.3,5.00,000.00,019.2,018.2,000.0,027.5,020.4,13.3,0000.0,0009.86,0005.20,0004.84
2024-01-03 12:40:00,SystemResetWarning,0829.4,5.00,000.00,019.2,018.2,000.0,027.5,020.4,13.2,0000.0,0009.84,0005.25,0004.89
2024-01-03 12:41:00,SystemResetWarning,0829.4,5.00,000.00,019.2,018.1,000.0,027.5,020.4,13.2,0000.0,0010.40,0005.29,0004.93
2024-01-03 12:42:00,SystemResetWarning,0829.3,5.00,000.00,019.2,018.1,000.0,027.5,020.4,13.2,0000.0,0010.60,0005.32,0004.97
2024-01-03 12:43:00,SystemResetWarning,0829.3,5.00,000.00,019.2,018.2,000.0,027.5,020.4,13.2,0000.0,0010.85,0005.35,0004.97
2024-01-03 12:44:00,SystemResetWarning,0829.3,4.99,000.00,019.2,018.1,000.0,027.5,020.4,13.1,0000.0,0011.18,0005.34,0004.96
2024-01-03 12:45:00,SystemResetWarning,0829.3,5.01,000.00,019.2,018.1,000.0,027.5,020.4,13.0,0000.0,0011.10,0005.31,0004.94
2024-01-03 12:46:00,SystemResetWarning,0829.3,5.02,000.00,019.1,018.1,000.0,027.5,020.4,13.1,0000.0,0011.79,0005.31,0004.92
2024-01-03 12:47:00,SystemResetWarning,0829.4,4.99,000.00,019.1,018.1,000.0,027.5,020.4,13.1,0000.0,0011.75,0005.31,0004.91
2024-01-03 12:48:00,SystemResetWarning,0829.4,4.99,000.00,019.1,018.1,000.0,027.5,020.4,13.1,0000.0,0011.30,0005.30,0004.91
2024-01-03 12:49:00,SystemResetWarning,0829.4,5.00,000.00,019.1,018.1,000.0,027.5,020.4,13.1,0000.0,0011.89,0005.32,0004.89
2024-01-03 12:50:00,SystemResetWarning,0829.3,5.01,000.00,019.1,018.1,000.0,027.5,020.4,13.1,0000.0,0011.18,0005.29,0004.85
2024-01-03 12:51:00,SystemResetWarning,0829.3,5.00,000.00,019.1,018.1,000.0,027.5,020.4,13.2,0000.0,0011.19,0005.24,0004.80
2024-01-03 12:52:00,SystemResetWarning,0829.4,4.99,000.00,019.1,018.0,000.0,027.5,020.4,13.2,0000.0,0010.82,0005.17,0004.74
2024-01-03 12:53:00,SystemResetWarning,0829.3,4.99,000.00,019.1,018.0,000.0,027.4,020.4,13.3,0000.0,0010.38,0005.11,0004.69
2024-01-03 12:54:00,SystemResetWarning,0829.3,4.99,000.00,019.1,018.0,000.0,027.4,020.4,13.4,0000.0,0010.34,0005.03,0004.64
2024-01-03 12:55:00,SystemResetWarning,0829.4,5.01,000.00,019.1,018.1,000.0,027.5,020.4,13.4,0002.9,0010.48,0005.00,0004.63
2024-01-03 12:56:00,SystemResetWarning,0829.4,5.01,000.00,019.1,018.1,000.0,027.5,020.4,13.4,0003.4,0011.00,0004.99,0004.62
2024-01-03 12:57:00,SystemResetWarning,0829.4,5.00,000.00,019.1,018.2,000.0,027.4,020.4,13.4,0000.3,0010.54,0004.97,0004.59
2024-01-03 12:58:00,SystemResetWarning,0829.4,5.00,000.00,019.1,018.2,000.0,027.4,020.4,13.5,0000.0,0010.28,0004.89,0004.54
2024-01-03 12:59:00,SystemResetWarning,0829.4,5.00,000.00,019.1,018.2,000.0,027.4,020.4,13.5,0000.3,0010.19,0004.85,0004.49
